Hourly Weather Barvenkovskiy

Today, 8 March, Monday

Time Temperature Precipitation Wind Pressure Humidity
00:00 -9°C° 0.1 mm 9 mps 750 mmHg 83%
01:00 -9°C° 0.2 mm 9 mps 749 mmHg 86%
02:00 -9°C° 0.2 mm 10 mps 749 mmHg 89%
03:00 -8°C° 0 mm 9 mps 748 mmHg 95%
04:00 -8°C° 0.3 mm 9 mps 748 mmHg 94%
05:00 -8°C° 0.3 mm 9 mps 748 mmHg 93%
06:00 -8°C° 0.3 mm 9 mps 748 mmHg 93%
07:00 -6°C° 0 mm 8 mps 748 mmHg 91%
08:00 -6°C° 0 mm 8 mps 748 mmHg 90%
09:00 -5°C° 0 mm 8 mps 748 mmHg 89%
10:00 -4°C° 0.2 mm 7 mps 749 mmHg 90%
11:00 -3°C° 0.2 mm 7 mps 749 mmHg 92%
12:00 -3°C° 0.2 mm 6 mps 750 mmHg 93%
13:00 -3°C° 0.4 mm 7 mps 749 mmHg 93%
14:00 -3°C° 0.4 mm 7 mps 749 mmHg 93%
15:00 -3°C° 0 mm 6 mps 749 mmHg 93%
16:00 -3°C° 0.2 mm 6 mps 749 mmHg 93%
17:00 -4°C° 0.2 mm 6 mps 749 mmHg 92%
18:00 -4°C° 0.2 mm 6 mps 749 mmHg 92%
19:00 -5°C° 0.2 mm 6 mps 749 mmHg 91%
20:00 -6°C° 0.2 mm 5 mps 750 mmHg 91%
21:00 -5°C° 0.2 mm 4 mps 750 mmHg 90%
22:00 -7°C° 0 mm 4 mps 750 mmHg 91%
23:00 -7°C° 0 mm 3 mps 751 mmHg 91%

Tomorrow, 9 March, Tuesday

Time Temperature Precipitation Wind Pressure Humidity
00:00 -8°C° 0 mm 3 mps 751 mmHg 91%
01:00 -8°C° 0 mm 2 mps 751 mmHg 90%
02:00 -10°C° 0 mm 2 mps 752 mmHg 88%
03:00 -10°C° 0 mm 1 mps 752 mmHg 87%
04:00 -10°C° 0 mm 1 mps 752 mmHg 86%
05:00 -10°C° 0 mm 1 mps 752 mmHg 85%
06:00 -10°C° 0 mm 1 mps 752 mmHg 84%
07:00 -9°C° 0 mm 1 mps 752 mmHg 85%
08:00 -9°C° 0 mm 1 mps 752 mmHg 86%
09:00 -8°C° 0 mm 1 mps 752 mmHg 86%
10:00 -8°C° 0 mm 2 mps 752 mmHg 86%
11:00 -8°C° 0 mm 2 mps 752 mmHg 86%
12:00 -7°C° 0 mm 2 mps 752 mmHg 85%
13:00 -7°C° 0 mm 2 mps 752 mmHg 86%
14:00 -7°C° 0 mm 2 mps 752 mmHg 87%
15:00 -7°C° 0 mm 2 mps 752 mmHg 88%
16:00 -9°C° 0 mm 2 mps 752 mmHg 89%
17:00 -10°C° 0 mm 2 mps 752 mmHg 90%
18:00 -12°C° 0 mm 2 mps 752 mmHg 91%
19:00 -12°C° 0 mm 2 mps 753 mmHg 92%
20:00 -12°C° 0 mm 2 mps 753 mmHg 92%
21:00 -13°C° 0 mm 3 mps 754 mmHg 92%
22:00 -13°C° 0 mm 3 mps 754 mmHg 92%
23:00 -14°C° 0 mm 3 mps 754 mmHg 93%

Day after tomorrow, 10 March, Wednesday

Time Temperature Precipitation Wind Pressure Humidity
00:00 -15°C° 0 mm 3 mps 754 mmHg 93%
01:00 -16°C° 0 mm 3 mps 754 mmHg 92%
02:00 -17°C° 0 mm 3 mps 755 mmHg 91%
03:00 -19°C° 0 mm 4 mps 755 mmHg 90%
04:00 -20°C° 0 mm 4 mps 755 mmHg 91%
05:00 -22°C° 0 mm 4 mps 756 mmHg 91%
06:00 -23°C° 0 mm 4 mps 756 mmHg 92%
07:00 -22°C° 0 mm 4 mps 756 mmHg 90%
08:00 -20°C° 0 mm 4 mps 757 mmHg 89%
09:00 -19°C° 0 mm 4 mps 757 mmHg 88%
10:00 -18°C° 0 mm 4 mps 757 mmHg 86%
11:00 -17°C° 0 mm 4 mps 758 mmHg 84%
12:00 -17°C° 0 mm 5 mps 758 mmHg 83%
13:00 -17°C° 0 mm 5 mps 758 mmHg 83%
14:00 -17°C° 0 mm 5 mps 759 mmHg 83%
15:00 -17°C° 0 mm 5 mps 759 mmHg 83%
16:00 -18°C° 0 mm 5 mps 759 mmHg 85%
17:00 -18°C° 0 mm 4 mps 760 mmHg 86%
18:00 -19°C° 0 mm 4 mps 760 mmHg 88%
19:00 -20°C° 0 mm 4 mps 761 mmHg 89%
20:00 -23°C° 0 mm 4 mps 761 mmHg 89%
21:00 -24°C° 0 mm 4 mps 762 mmHg 90%
22:00 -25°C° 0 mm 4 mps 762 mmHg 91%
23:00 -26°C° 0 mm 3 mps 762 mmHg 91%

11 March, Thursday

Time Temperature Precipitation Wind Pressure Humidity
00:00 -27°C° 0 mm 3 mps 763 mmHg 91%
01:00 -27°C° 0 mm 3 mps 763 mmHg 91%
02:00 -29°C° 0 mm 3 mps 763 mmHg 91%
03:00 -29°C° 0 mm 3 mps 764 mmHg 91%
04:00 -30°C° 0 mm 3 mps 764 mmHg 91%
05:00 -30°C° 0 mm 3 mps 765 mmHg 92%
06:00 -30°C° 0 mm 3 mps 765 mmHg 92%
07:00 -29°C° 0 mm 3 mps 765 mmHg 91%
08:00 -27°C° 0 mm 3 mps 766 mmHg 90%
09:00 -25°C° 0 mm 3 mps 766 mmHg 90%
10:00 -24°C° 0 mm 3 mps 766 mmHg 88%
11:00 -22°C° 0 mm 3 mps 766 mmHg 87%
12:00 -21°C° 0 mm 3 mps 767 mmHg 86%
13:00 -19°C° 0 mm 3 mps 766 mmHg 86%
14:00 -18°C° 0 mm 3 mps 766 mmHg 86%
15:00 -17°C° 0 mm 3 mps 766 mmHg 87%
16:00 -19°C° 0 mm 3 mps 767 mmHg 88%
17:00 -21°C° 0 mm 3 mps 767 mmHg 90%
18:00 -22°C° 0 mm 3 mps 767 mmHg 92%
19:00 -22°C° 0 mm 3 mps 767 mmHg 92%
20:00 -22°C° 0 mm 3 mps 767 mmHg 92%
21:00 -20°C° 0 mm 2 mps 768 mmHg 92%
22:00 -21°C° 0 mm 2 mps 768 mmHg 93%
23:00 -21°C° 0 mm 2 mps 768 mmHg 94%

12 March, Friday

Time Temperature Precipitation Wind Pressure Humidity
00:00 -20°C° 0 mm 1 mps 768 mmHg 95%
01:00 -20°C° 0 mm 1 mps 768 mmHg 95%
02:00 -20°C° 0 mm 1 mps 769 mmHg 95%
03:00 -20°C° 0 mm 1 mps 769 mmHg 95%
04:00 -20°C° 0 mm 1 mps 769 mmHg 95%
05:00 -20°C° 0 mm 1 mps 769 mmHg 95%
06:00 -21°C° 0 mm 1 mps 770 mmHg 95%
07:00 -19°C° 0 mm 1 mps 770 mmHg 94%
08:00 -18°C° 0 mm 1 mps 770 mmHg 92%
09:00 -16°C° 0 mm 1 mps 771 mmHg 90%
10:00 -15°C° 0 mm 1 mps 771 mmHg 89%
11:00 -14°C° 0 mm 1 mps 771 mmHg 87%
12:00 -13°C° 0 mm 1 mps 771 mmHg 86%
13:00 -12°C° 0 mm 1 mps 771 mmHg 87%
14:00 -12°C° 0 mm 1 mps 771 mmHg 89%
15:00 -11°C° 0 mm 1 mps 771 mmHg 90%
16:00 -14°C° 0 mm 2 mps 771 mmHg 91%
17:00 -16°C° 0 mm 2 mps 771 mmHg 92%
18:00 -17°C° 0 mm 2 mps 771 mmHg 93%
19:00 -17°C° 0 mm 2 mps 771 mmHg 93%
20:00 -18°C° 0 mm 2 mps 772 mmHg 93%
21:00 -18°C° 0 mm 2 mps 772 mmHg 92%
22:00 -18°C° 0 mm 2 mps 772 mmHg 92%
23:00 -19°C° 0 mm 2 mps 772 mmHg 92%

13 March, Saturday

Time Temperature Precipitation Wind Pressure Humidity
00:00 -19°C° 0 mm 2 mps 772 mmHg 92%
01:00 -19°C° 0 mm 2 mps 773 mmHg 92%
02:00 -19°C° 0 mm 2 mps 773 mmHg 92%
03:00 -19°C° 0 mm 2 mps 773 mmHg 92%
04:00 -20°C° 0 mm 2 mps 773 mmHg 93%
05:00 -20°C° 0 mm 2 mps 773 mmHg 93%
06:00 -20°C° 0 mm 2 mps 773 mmHg 94%
07:00 -19°C° 0 mm 2 mps 773 mmHg 93%
08:00 -18°C° 0 mm 2 mps 773 mmHg 93%
09:00 -17°C° 0 mm 2 mps 773 mmHg 92%
10:00 -16°C° 0 mm 2 mps 773 mmHg 91%
11:00 -15°C° 0 mm 3 mps 773 mmHg 90%
12:00 -14°C° 0 mm 3 mps 773 mmHg 89%
13:00 -14°C° 0 mm 3 mps 773 mmHg 89%
14:00 -14°C° 0 mm 3 mps 773 mmHg 90%
15:00 -14°C° 0 mm 3 mps 772 mmHg 90%
16:00 -15°C° 0 mm 3 mps 772 mmHg 90%
17:00 -16°C° 0 mm 3 mps 772 mmHg 91%
18:00 -18°C° 0 mm 3 mps 772 mmHg 92%
19:00 -18°C° 0 mm 3 mps 772 mmHg 92%
20:00 -19°C° 0 mm 3 mps 772 mmHg 92%
21:00 -19°C° 0 mm 3 mps 772 mmHg 92%
22:00 -19°C° 0 mm 3 mps 771 mmHg 91%
23:00 -18°C° 0 mm 2 mps 771 mmHg 90%
Show more